[[{"header":{"parameterUnit":"m.s-1","parameterCategory":1,"la1":30.2991,"la2":30.254,"lo1":-89.0895,"lo2":-89.0444,"dy":0.0017,"dx":0.0017,"nx":28,"ny":28,"refTime":"2025-04-11T21:00:00:Z","depth":0,"parameterNumber":2,"parameterNumberName":"U-component_of_WINDS"},"data":[0,0,0,0,0,0,0,0,0,0,0,0,0,0,0,0,0,0,0,0,0,0,0,0,0,0,0,0,0,0,0,0,0,0,0,0,0,0,0,0,0,0,0,0,0,0,0,0,0,0,0,0,0,0,0,0,0,0,-3.0312,-3.0312,0,-3.036,-3.0361,-3.0361,-3.0282,-3.0279,-3.0276,-3.0274,-3.0324,-3.0328,-3.0331,0,0,0,0,0,0,0,0,0,0,0,0,0,-3.0149,-3.0153,-3.0312,-3.0312,-3.0313,-3.036,-3.0361,-3.0361,-3.0282,-3.0279,-3.0276,-3.0273,-3.0323,-3.0327,-3.0332,0,0,0,0,0,0,0,0,0,0,0,0,0,-3.0211,-3.0154,-3.0312,-3.0279,-3.0277,-3.036,-3.0361,-3.0362,-3.0283,-3.0279,-3.0275,-3.0271,-3.0321,-3.0327,-3.0332,-3.045,0,0,-3.035,-3.0353,0,0,0,0,0,0,0,0,-3.0208,-3.0217,-3.0283,-3.0281,-3.0279,-3.0311,-3.0322,-3.0391,-3.0284,-3.0281,-3.0274,-3.0269,-3.0323,-3.0328,-3.0346,-3.0452,-3.0454,-3.0351,-3.0354,-3.0357,-3.0358,0,0,0,0,0,0,0,-3.0204,-3.0215,-3.0331,-3.0284,-3.0282,-3.0262,-3.0266,-3.0335,-3.0324,-3.0281,-3.0275,-3.0282,-3.0321,-3.0341,-3.0347,-3.0455,-3.0351,-3.0356,-3.0359,-3.0362,-3.0657,-3.0662,0,0,0,0,0,0,-3.0203,-3.0212,-3.0329,-3.0332,-3.0233,-3.0268,-3.0273,-3.0305,-3.0323,-3.0322,-3.0285,-3.0278,-3.0333,-3.034,-3.0348,-3.0485,-3.0357,-3.0362,-3.0365,-3.0653,-3.0658,-3.0663,0,0,0,0,0,0,-3.02,-3.0215,-3.0327,-3.027,-3.0283,-3.0275,-3.0312,-3.0308,-3.0328,-3.0327,-3.0324,-3.0308,-3.033,-3.034,-3.0425,-3.0486,-3.0365,-3.037,-3.0648,-3.0655,-3.0661,-3.0761,0,0,0,0,0,0,-3.0196,-3.0214,-3.0259,-3.0272,-3.0287,-3.0403,-3.0315,-3.0312,-3.0338,-3.0329,-3.0347,-3.0346,-3.0328,-3.0416,-3.043,-3.0491,-3.0375,-3.0642,-3.0651,-3.0659,-3.0752,-3.077,-3.0785,0,0,0,0,0,-3.019,-3.0286,-3.0262,-3.0276,-3.0343,-3.0407,-3.0415,-3.0392,-3.0343,-3.0388,-3.0387,-3.0345,-3.0477,-3.0426,-3.0441,-3.0505,-3.0638,-3.0648,-3.0658,-3.0744,-3.0766,-3.0785,0,0,0,0,0,0,-3.028,-3.0287,-3.026,-3.0363,-3.0385,-3.0393,-3.0449,-3.0416,-3.0453,-3.0443,-3.0413,-3.0418,-3.0508,-3.0515,-3.0458,-3.0618,-3.0549,-3.0563,-3.061,-3.0631,-3.0647,-3.0643,-3.0379,0,0,0,0,0,-3.0312,-3.0364,-3.0367,-3.0457,-3.0469,-3.0458,-3.0485,-3.0465,-3.0487,-3.0496,-3.0501,-3.0524,-3.057,-3.0601,-3.0644,-3.0753,-3.0755,-3.0804,-3.0821,-3.0835,-3.0846,-3.0902,-3.0923,-3.0695,-3.0695,-3.0695,0,0,-3.0378,-3.0388,-3.0423,-3.0475,-3.049,-3.0544,-3.0466,-3.0527,-3.0566,-3.0505,-3.0584,-3.0589,-3.0613,-3.0709,-3.0752,-3.0718,-3.0909,-3.0847,-3.0858,-3.0862,-3.0914,-3.0936,-3.0955,-3.0702,-3.0701,-3.07,0,0,-3.0525,-3.0539,-3.0614,-3.063,-3.0654,-3.0645,-3.0663,-3.0677,-3.0677,-3.0757,-3.0711,-3.0758,-3.0839,-3.0856,-3.0876,-3.1029,-3.0992,-3.1044,-3.113,-3.1185,-3.1203,-3.1219,-3.1271,-3.129,-3.1056,-3.1056,-3.1056,0,-3.0604,-3.0683,-3.0657,-3.072,-3.0744,-3.0691,-3.0766,-3.0784,-3.082,-3.0837,-3.0798,-3.0897,-3.0909,-3.1008,-3.1046,-3.1064,-3.1083,-3.1041,-3.1203,-3.1218,-3.1232,-3.1282,-3.1302,-3.1062,-3.1061,-3.1061,-3.106,0,-3.0778,-3.0834,-3.0892,-3.0927,-3.0957,-3.1027,-3.101,-3.1044,-3.1022,-3.1017,-3.1098,-3.111,-3.1153,-3.1176,-3.1155,-3.1272,-3.1249,-3.1208,-3.1138,-3.1261,-3.1306,-3.1325,-3.107,-3.1068,-3.1066,-3.1065,0,0,-3.0982,-3.1002,-3.1023,-3.1038,-3.1059,-3.1101,-3.1168,-3.121,-3.1238,-3.1266,-3.1319,-3.1388,-3.1349,-3.1371,-3.1352,-3.1401,-3.1518,-3.1352,-3.1352,-3.138,-3.1645,-3.1674,-3.1697,-3.1494,-3.1498,-3.1501,-3.1642,0,-3.1127,-3.124,-3.1218,-3.1329,-3.1379,-3.133,-3.1387,-3.1406,-3.1404,-3.1445,-3.1443,-3.1491,-3.1437,-3.1449,-3.1496,-3.1494,-3.157,-3.1484,-3.1542,-3.1545,-3.1535,-3.1721,-3.1753,-3.1885,-3.166,-3.1663,-3.1665,0,-3.131,-3.1343,-3.1459,-3.147,-3.149,-3.1542,-3.1578,-3.1619,-3.1639,-3.1634,-3.1659,-3.163,-3.1695,-3.1626,-3.1714,-3.1655,-3.1678,-3.1681,-3.1686,-3.1688,-3.1611,-3.1726,-3.1927,-3.1946,-3.1693,-3.1691,-3.1689,0,-3.1444,-3.1518,-3.1595,-3.161,-3.1626,-3.1664,-3.1672,-3.1688,-3.1714,-3.1746,-3.1762,-3.1801,-3.1822,-3.1853,-3.1835,-3.1786,-3.1925,-3.1855,-3.1921,-3.1921,-3.1951,-3.1949,-3.2156,-3.197,-3.197,-3.1969,-3.1969,0,-3.1606,-3.1679,-3.1656,-3.1703,-3.1782,-3.1756,-3.1835,-3.1838,-3.1853,-3.1899,-3.186,-3.1905,-3.1879,-3.1922,-3.1909,-3.1982,-3.1993,-3.1989,-3.1984,-3.1991,-3.1991,-3.2004,-3.1993,-3.1975,-3.1973,-3.1972,-3.1971,0,-3.1769,-3.1757,-3.1838,-3.1847,-3.185,-3.1908,-3.1915,-3.1959,-3.1953,-3.2013,-3.2026,-3.2017,-3.2065,-3.205,-3.2103,-3.2093,-3.2186,-3.2171,-3.2179,-3.2174,-3.224,-3.2233,-3.246,-3.2488,-3.2287,-3.2289,-3.229,0,-3.1872,-3.1926,-3.194,-3.1968,-3.1979,-3.2026,-3.2052,-3.2029,-3.2057,-3.2084,-3.2124,-3.2169,-3.2202,-3.2282,-3.2279,-3.2319,-3.2302,-3.238,-3.2308,-3.2313,-3.23,-3.2296,-3.23,-3.2393,-3.2395,-3.2397,-3.2399,0,-3.2055,-3.2046,-3.2085,-3.2122,-3.2153,-3.2181,-3.2206,-3.2231,-3.2209,-3.2243,-3.2291,-3.2318,-3.237,-3.2414,-3.245,-3.2458,-3.2424,-3.2422,-3.2438,-3.2445,-3.2446,-3.2443,-3.2215,-3.2416,-3.2414,-3.2413,-3.2412,-3.2411,-3.2189,-3.2234,-3.225,-3.2294,-3.231,-3.2333,-3.2374,-3.2373,-3.2413,-3.2453,-3.2438,-3.2493,-3.251,-3.2554,-3.2567,-3.2609,-3.2579,-3.2605,-3.2611,-3.2616,-3.2623,-3.2442,-3.2616,-3.2616,-3.2615,-3.2615,-3.2614,0,-3.2367,-3.2375,-3.2416,-3.2451,-3.2485,-3.2451,-3.2476,-3.2507,-3.2555,-3.2575,-3.2609,-3.2663,-3.2705,-3.2707,-3.2746,-3.2779,-3.2764,-3.279,-3.2786,-3.2788,-3.2649,-3.2629,-3.2801,-3.2801,-3.2801,-3.2801,-3.2801,-3.2801,-3.2464,-3.2537,-3.253,-3.261,-3.2618,-3.2671,-3.2687,-3.2708,-3.2723,-3.2785,-3.282,-3.2821,-3.2832,-3.2872,-3.2908,-3.2908,-3.2923,-3.2953,-3.2947,-3.2816,-3.2798,-3.278,-3.2761,-3.2958,-3.2958,-3.3081,-3.3082,-3.3083]},{"header":{"parameterUnit":"m.s-1","parameterCategory":1,"la1":30.2991,"la2":30.254,"lo1":-89.0895,"lo2":-89.0444,"dy":0.0017,"dx":0.0017,"nx":28,"ny":28,"refTime":"2025-04-11T21:00:00:Z","depth":0,"parameterNumber":3,"parameterNumberName":"V-component_of_WINDS"},"data":[0,0,0,0,0,0,0,0,0,0,0,0,0,0,0,0,0,0,0,0,0,0,0,0,0,0,0,0,0,0,0,0,0,0,0,0,0,0,0,0,0,0,0,0,0,0,0,0,0,0,0,0,0,0,0,0,0,0,-1.5731,-1.5731,0,-1.5776,-1.5776,-1.5777,-1.5771,-1.577,-1.5769,-1.5769,-1.5812,-1.5814,-1.5816,0,0,0,0,0,0,0,0,0,0,0,0,0,-1.5636,-1.5638,-1.5731,-1.5731,-1.5732,-1.5776,-1.5776,-1.5777,-1.5771,-1.577,-1.5769,-1.5768,-1.5812,-1.5814,-1.5816,0,0,0,0,0,0,0,0,0,0,0,0,0,-1.5679,-1.5639,-1.5731,-1.5734,-1.5735,-1.5776,-1.5776,-1.5777,-1.5771,-1.577,-1.5769,-1.5768,-1.5811,-1.5814,-1.5816,-1.5855,0,0,-1.5825,-1.5826,0,0,0,0,0,0,0,0,-1.5677,-1.5682,-1.5733,-1.5734,-1.5735,-1.5767,-1.5759,-1.5803,-1.5771,-1.5757,-1.5769,-1.5767,-1.5798,-1.5802,-1.5812,-1.5857,-1.5859,-1.5825,-1.5827,-1.5828,-1.5829,0,0,0,0,0,0,0,-1.5674,-1.568,-1.5749,-1.5734,-1.5735,-1.5733,-1.5737,-1.5767,-1.5783,-1.5759,-1.5758,-1.5764,-1.5798,-1.581,-1.5813,-1.586,-1.5825,-1.5827,-1.5829,-1.583,-1.5938,-1.5939,0,0,0,0,0,0,-1.567,-1.5678,-1.5747,-1.575,-1.5703,-1.5735,-1.5741,-1.5758,-1.5783,-1.5786,-1.5765,-1.5763,-1.5805,-1.581,-1.5815,-1.5862,-1.5828,-1.583,-1.5832,-1.5937,-1.5939,-1.594,0,0,0,0,0,0,-1.5668,-1.5676,-1.5745,-1.5714,-1.5723,-1.5738,-1.5757,-1.5759,-1.5771,-1.5787,-1.579,-1.5774,-1.5805,-1.5811,-1.5845,-1.5863,-1.5832,-1.5834,-1.5936,-1.5938,-1.5939,-1.5956,0,0,0,0,0,0,-1.5665,-1.5676,-1.5691,-1.5714,-1.5724,-1.5776,-1.5758,-1.5761,-1.5776,-1.5775,-1.5797,-1.5799,-1.5804,-1.5841,-1.5848,-1.5866,-1.5836,-1.5934,-1.5936,-1.5939,-1.5954,-1.5958,-1.5962,0,0,0,0,0,-1.5662,-1.5694,-1.5692,-1.5701,-1.5744,-1.5777,-1.5783,-1.5789,-1.5777,-1.5793,-1.5803,-1.5799,-1.586,-1.5845,-1.5852,-1.5872,-1.5933,-1.5936,-1.5938,-1.5952,-1.5957,-1.5962,0,0,0,0,0,0,-1.5672,-1.5697,-1.5695,-1.5736,-1.5755,-1.5776,-1.5796,-1.5794,-1.5815,-1.5813,-1.5819,-1.5824,-1.5858,-1.5869,-1.5851,-1.591,-1.5895,-1.5899,-1.5903,-1.5908,-1.5912,-1.5908,-1.5839,0,0,0,0,0,-1.5679,-1.5705,-1.5725,-1.5758,-1.5768,-1.578,-1.5795,-1.5798,-1.5817,-1.5824,-1.5837,-1.5855,-1.5879,-1.5894,-1.5916,-1.5955,-1.596,-1.5972,-1.5976,-1.598,-1.5983,-1.6004,-1.6009,-1.5949,-1.5949,-1.5949,0,0,-1.5694,-1.571,-1.5726,-1.5761,-1.5776,-1.5801,-1.5787,-1.5814,-1.5833,-1.5828,-1.5862,-1.5872,-1.5892,-1.5929,-1.5946,-1.5938,-1.6001,-1.5983,-1.5985,-1.5987,-1.6007,-1.6013,-1.6018,-1.5951,-1.595,-1.595,0,0,-1.5733,-1.5749,-1.5778,-1.5793,-1.5816,-1.5824,-1.5831,-1.5853,-1.586,-1.5894,-1.5891,-1.5912,-1.5952,-1.5967,-1.5979,-1.6023,-1.6019,-1.603,-1.6051,-1.6071,-1.6076,-1.608,-1.6095,-1.61,-1.6034,-1.6034,-1.6034,0,-1.5748,-1.5787,-1.5793,-1.5821,-1.5836,-1.5834,-1.5863,-1.5877,-1.5906,-1.5916,-1.5907,-1.5957,-1.5971,-1.601,-1.6021,-1.6032,-1.6039,-1.6028,-1.6075,-1.6079,-1.6083,-1.6097,-1.6103,-1.6035,-1.6035,-1.6035,-1.6035,0,-1.5804,-1.583,-1.5851,-1.588,-1.5897,-1.5925,-1.5935,-1.5952,-1.5953,-1.5961,-1.5995,-1.6011,-1.6037,-1.6046,-1.6048,-1.6086,-1.6081,-1.6074,-1.6058,-1.609,-1.6103,-1.6109,-1.6037,-1.6036,-1.6036,-1.6036,0,0,-1.585,-1.5882,-1.589,-1.5902,-1.5927,-1.5947,-1.5975,-1.6001,-1.6014,-1.6034,-1.6056,-1.609,-1.6083,-1.6098,-1.61,-1.6118,-1.6151,-1.6109,-1.6109,-1.6115,-1.6194,-1.6199,-1.6205,-1.6149,-1.615,-1.6151,-1.6192,0,-1.5892,-1.5942,-1.5948,-1.5992,-1.6017,-1.6015,-1.6039,-1.6056,-1.6064,-1.6085,-1.6094,-1.6118,-1.6108,-1.6116,-1.6134,-1.6144,-1.6167,-1.6141,-1.6169,-1.617,-1.6164,-1.6213,-1.6218,-1.6256,-1.6197,-1.6198,-1.6199,0,-1.5947,-1.5969,-1.6015,-1.6036,-1.6046,-1.6068,-1.6092,-1.6112,-1.6131,-1.6136,-1.6152,-1.6152,-1.618,-1.6163,-1.62,-1.6182,-1.6194,-1.6201,-1.6202,-1.6205,-1.6186,-1.6216,-1.6268,-1.6274,-1.6207,-1.6207,-1.6206,0,-1.5975,-1.6016,-1.6049,-1.606,-1.6086,-1.6101,-1.6112,-1.613,-1.6145,-1.6165,-1.6174,-1.6197,-1.6209,-1.6227,-1.6233,-1.622,-1.6269,-1.6254,-1.6273,-1.6273,-1.6284,-1.6283,-1.6338,-1.6292,-1.6292,-1.6292,-1.6292,0,-1.6021,-1.6049,-1.6063,-1.6083,-1.6114,-1.6121,-1.6152,-1.6162,-1.6178,-1.6199,-1.6199,-1.6219,-1.6226,-1.6246,-1.6251,-1.6281,-1.6287,-1.6291,-1.6292,-1.6291,-1.629,-1.6298,-1.6295,-1.6293,-1.6293,-1.6293,-1.6293,0,-1.6058,-1.6068,-1.6104,-1.6125,-1.6131,-1.6153,-1.6171,-1.619,-1.6198,-1.6225,-1.6232,-1.6245,-1.6269,-1.6277,-1.6306,-1.6309,-1.6344,-1.6343,-1.6338,-1.6338,-1.6357,-1.6355,-1.6419,-1.6428,-1.6376,-1.6377,-1.6377,0,-1.6086,-1.6108,-1.6132,-1.6146,-1.6158,-1.6182,-1.6197,-1.6204,-1.622,-1.6243,-1.6259,-1.6283,-1.6303,-1.6342,-1.6353,-1.6375,-1.6374,-1.6395,-1.6377,-1.6375,-1.6373,-1.6372,-1.6374,-1.6398,-1.6399,-1.6399,-1.6399,0,-1.6134,-1.6138,-1.6161,-1.6185,-1.6203,-1.6222,-1.6241,-1.6252,-1.6262,-1.6279,-1.6305,-1.632,-1.635,-1.6374,-1.6397,-1.6407,-1.6404,-1.6405,-1.6411,-1.641,-1.6406,-1.6408,-1.6346,-1.6403,-1.6403,-1.6403,-1.6402,-1.6402,-1.6167,-1.6187,-1.6206,-1.6231,-1.6246,-1.6263,-1.6282,-1.6292,-1.6314,-1.634,-1.6342,-1.6369,-1.6387,-1.6417,-1.6428,-1.6449,-1.6443,-1.6451,-1.6453,-1.6455,-1.6456,-1.6403,-1.6453,-1.6453,-1.6453,-1.6453,-1.6452,0,-1.6215,-1.6228,-1.625,-1.6276,-1.6296,-1.6293,-1.6313,-1.6329,-1.6353,-1.637,-1.639,-1.6418,-1.6441,-1.6454,-1.6477,-1.6491,-1.649,-1.6496,-1.6495,-1.6498,-1.646,-1.6453,-1.6497,-1.6497,-1.6497,-1.6497,-1.6497,-1.6496,-1.6242,-1.6274,-1.6281,-1.632,-1.6332,-1.6359,-1.637,-1.6386,-1.6399,-1.6432,-1.6451,-1.646,-1.6475,-1.6499,-1.6519,-1.6522,-1.653,-1.6537,-1.654,-1.6505,-1.65,-1.6496,-1.6489,-1.6539,-1.6539,-1.6575,-1.6575,-1.6575]}]]